Regional Weather Roundup
Issued by NWS Albany, NY

Home | Current Version | Previous Version | Graphics & Text | Print | Product List | Glossary Off
Versions: 1 2 3 4 5 6 7 8 9 10 11 12 13 14 15 16 17 18 19 20 21 22 23 24 25 26 27 28 29 30 31 32 33 34 35 36 37 38 39 40 41 42 43 44 45 46 47 48 49

000
ASUS41 KALY 241910
RWRALY

NEW YORK STATE HOURLY WEATHER ROUNDUP
NATIONAL WEATHER SERVICE ALBANY NY
300 PM EDT FRI APR 24 2015

NOTE: "FAIR" INDICATES FEW OR NO CLOUDS BELOW 12,000 FEET WITH NO
SIGNIFICANT WEATHER AND/OR NO OBSTRUCTIONS TO VISIBILITY.

NYZ032-033-038>043-046>054-057>066-NYZ062>081-242000-
EAST


CITY           SKY/WX    TMP DP  RH WIND       PRES   REMARKS
ALBANY         CLOUDY    41  20  43 NW18      29.84S
GLENS FALLS    CLOUDY    42  21  43 NW10      29.79F
POUGHKEEPSIE   CLOUDY    43  20  39 NW10G21   29.84R
NEWBURGH       PTSUNNY   41  21  45 NW18G29   29.84S
MONTGOMERY     CLOUDY    43  22  43 NW14G25   29.84S
WHITE PLAINS   PTSUNNY   44  19  36 NW22G33   29.82S
ISLIP          CLOUDY    45  21  38 NW21G28   29.80S
NEW YORK CITY  PTSUNNY   49  21  33 NW15      29.82F
CENTRAL PARK   PTSUNNY   50  18  28 MISG      29.85F
$$

NYZ005>009-017-018-044>046-055-056-242000-
CENTRAL


CITY           SKY/WX    TMP DP  RH WIND       PRES   REMARKS
FULTON         CLOUDY    37  28  70 W18G26    29.94S WCI  27
SYRACUSE       FLURRIES  37  24  59 W18G25    29.94R WCI  27
ROME           CLOUDY    38  21  50 W18G25    29.91S WCI  28
ELMIRA         PTSUNNY   44  20  38 NW15G23   29.91F
BINGHAMTON     CLOUDY    33  21  61 NW9G18    29.87S WCI  25
MONTICELLO     CLOUDY    37  23  56 NW23G36   29.83F WCI  26
$$

NYZ026>034-041>043-242000-
NORTH


CITY           SKY/WX    TMP DP  RH WIND       PRES   REMARKS
WATERTOWN      CLOUDY    40  19  43 W15G25    29.90F WCI  32
FORT DRUM      NOT AVBL
MASSENA        CLOUDY    39  21  48 W17G23    29.86F WCI  30
SARANAC LAKE   FLURRIES  31  20  63 W9G20     29.75S WCI  23
PLATTSBURGH    CLOUDY    38  22  52 NW14G20   29.80S WCI  30
$$

NYZ001>004-010>016-019>021-242000-
WEST


CITY           SKY/WX    TMP DP  RH WIND       PRES   REMARKS
NIAGARA FALLS  PTSUNNY   43  21  41 NW21G31   29.98F
BUFFALO        PTSUNNY   38  23  55 SW22G29   29.98F WCI  27
DUNKIRK        SUNNY     39  23  52 SW18G24   30.04F WCI  30
JAMESTOWN      MOSUNNY   36  21  55 NW20      29.99S WCI  25
WELLSVILLE     SUNNY     40  18  41 NW18G29   29.91F WCI  31
ROCHESTER      CLOUDY    40  20  44 NW18G26   29.96F WCI  31
PENN YAN       CLOUDY    38  21  50 NW14G20   29.93F WCI  30
$$

             KEY
       WCI = WIND CHILL INDEX
       VSB = VISIBILITY
       HX  = HEAT INDEX
$$


USA.gov is the U.S. government's official web portal to all federal, state and local government web resources and services.